Overview Statistics Trail Chart Weather Telemetry Raw packets
 

This is the latest recevied weather packets stored in our database for station/object N5DGC. If no packets are shown the sender has not sent any weather packets the latest 10 day(s).

<< 8 9 10 11 12 13 14 >>
Time Temp. Humidity Pressure Rain* Wind** Luminosity Snow
1788550704 31.11° C 33% 1239.3 hPa 0 mm - 322 W/m² -
1788550399 31.11° C 32% 1239.5 hPa 0 mm - 360 W/m² -
1788550094 31.11° C 33% 1239.6 hPa 0 mm - 558 W/m² -
1788549789 30.56° C 34% 1239.7 hPa 0 mm - 711 W/m² -
1788549486 30.56° C 33% 1240 hPa 0 mm - 488 W/m² -
1788549182 31.11° C 34% 1239.8 hPa 0 mm - 409 W/m² -
1788548879 31.11° C 33% 1239.8 hPa 0 mm - 493 W/m² -
1788548574 31.11° C 33% 1240 hPa 0 mm - 449 W/m² -
1788548271 31.11° C 33% 1240 hPa 0 mm - 1314 W/m² -
1788547965 31.67° C 32% 1240.1 hPa 0 mm - 752 W/m² -
1788547664 31.11° C 34% 1240 hPa 0 mm - 1239 W/m² -
1788547360 30° C 35% 1240.2 hPa 0 mm - 881 W/m² -
1788547056 29.44° C 37% 1240.3 hPa 0 mm - 1048 W/m² -
1788546750 28.89° C 36% 1240.3 hPa 0 mm - 405 W/m² -
1788546446 28.89° C 36% 1240.5 hPa 0 mm - 445 W/m² -
1788546163 28.89° C 38% 1240.4 hPa 0 mm - 468 W/m² -
1788545836 28.89° C 38% 1240.7 hPa 0 mm - 452 W/m² -
1788545536 28.89° C 39% 1240.8 hPa 0 mm - 1034 W/m² -
1788545232 27.78° C 40% 1240.9 hPa 0 mm - 994 W/m² -
1788544927 27.78° C 40% 1241.1 hPa 0 mm - 509 W/m² -
1788544627 26.67° C 43% 1241.2 hPa 0 mm - 593 W/m² -
1788544325 26.67° C 45% 1241.5 hPa 0 mm - 465 W/m² -
1788544025 26.11° C 47% 1241.5 hPa 0 mm - 383 W/m² -
1788543721 26.67° C 45% 1241.6 hPa 0 mm - 370 W/m² -
1788543416 26.11° C 43% 1241.5 hPa 0 mm - 452 W/m² -

* Rain latest hour (hover to see other rain measurements)
** Current wind speed in m/s (hover to see current wind gust speed)